Regional Weather Roundup
Issued by NWS

Home | Current Version | Previous Version | Graphics & Text | Print | Product List | Glossary On
Versions: 1 2 3 4 5 6 7 8 9 10 11 12 13 14 15 16 17 18 19 20 21 22 23 24 25 26 27 28 29 30 31 32 33 34 35 36 37 38 39 40 41 42 43 44 45 46 47 48 49 50
000
ASUS43 KLSX 231807
RWRMO

WEATHER SUMMARY FOR MISSOURI
NATIONAL WEATHER SERVICE SPRINGFIELD MO
100 PM CDT TUE SEP 23 2014

NOTE: "FAIR" INDICATES FEW OR NO CLOUDS BELOW 12,000 FEET WITH NO
       SIGNIFICANT WEATHER AND/OR OBSTRUCTIONS TO VISIBILITY.
       CURRENT SKY AND/OR WEATHER CONDITIONS ARE NOT AVAILABLE FOR
       CHILLICOTHE AND FARMINGTON.

MOZ001>031-035>038-043-044-053-054-231900-
...NORTHERN AND WESTERN MISSOURI...

CITY           SKY/WX    TMP DP  RH WIND       PRES   REMARKS
KANSAS CTY INT PTSUNNY   73  56  54 S15       30.21F
6HR MIN TEMP:  54; 6HR MAX TEMP:  73; 6HR PCP: TRACE;

KANSAS C DTWN  PTSUNNY   73  55  53 S9        30.21F
6HR MIN TEMP:  60; 6HR MAX TEMP:  74;

LEE`S SUMMIT   PTSUNNY   72  54  53 SE8G18    30.23F
6HR MIN TEMP:  56; 6HR MAX TEMP:  72;

ST JOSEPH      CLOUDY    72  54  53 S12       30.20F
6HR MIN TEMP:  55; 6HR MAX TEMP:  73;

CHILLICOTHE      N/A     72  56  57 S6        30.26F
6HR MIN TEMP:  52; 6HR MAX TEMP:  72;

KIRKSVILLE     CLOUDY    70  50  49 S13       30.29F
6HR MIN TEMP:  50; 6HR MAX TEMP:  71;


$$
MOZ066>068-077>081-088>096-101>105-231900-
...SOUTHWEST MISSOURI...

CITY           SKY/WX    TMP DP  RH WIND       PRES   REMARKS
SPRINGFIELD    SUNNY     70  45  40 E6        30.27F
6HR MIN TEMP:  50; 6HR MAX TEMP:  71;

JOPLIN         SUNNY     73  52  47 SE8       30.25F
6HR MIN TEMP:  53; 6HR MAX TEMP:  73;


$$
MOZ032>034-039>042-045>050-055>058-069>072-231900-
...CENTRAL MISSOURI...

CITY           SKY/WX    TMP DP  RH WIND       PRES   REMARKS
COLUMBIA       MOSUNNY   71  48  43 SE9       30.29F
6HR MIN TEMP:  50; 6HR MAX TEMP:  71;

JEFFERSON CITY MOSUNNY   73  45  36 VRB6      30.29F
6HR MIN TEMP:  46; 6HR MAX TEMP:  73;

ROLLA          SUNNY     71  44  37 VRB3      30.29F
6HR MIN TEMP:  50; 6HR MAX TEMP:  71;

SEDALIA        MOSUNNY   73  52  47 S7        30.27F
6HR MIN TEMP:  50; 6HR MAX TEMP:  73;

WHITEMAN AFB   PTSUNNY   71  52  50 S8        30.25F
OSAGE BEACH    SUNNY     72  46  40 E10       30.28F

$$
MOZ051-052-059>065-231900-
...EAST CENTRAL MISSOURI...

CITY           SKY/WX    TMP DP  RH WIND       PRES   REMARKS
ST LOUIS INTL  MOSUNNY   72  48  42 SE7       30.32F
6HR MIN TEMP:  51; 6HR MAX TEMP:  73;

SPIRIT OF STL  MOSUNNY   70  48  45 SE7       30.31F
6HR MIN TEMP:  44; 6HR MAX TEMP:  70;

ST CHARLES     MOSUNNY   72  49  44 MISG      30.31F
6HR MIN TEMP:  47; 6HR MAX TEMP:  72;


$$
MOZ072>076-082>087-097>100-106>115-231900-
...SOUTH CENTRAL AND SOUTHEAST MISSOURI...

CITY           SKY/WX    TMP DP  RH WIND       PRES   REMARKS
CAPE GIRARDEAU SUNNY     72  47  40 NE7       30.30F
6HR MIN TEMP:  42; 6HR MAX TEMP:  73;

FARMINGTON     SUNNY     72  46  40 E8        30.33F
6HR MIN TEMP:  41; 6HR MAX TEMP:  72;

POPLAR BLUFF   SUNNY     73  45  36 VRB5      30.28F
6HR MIN TEMP:  46; 6HR MAX TEMP:  73;

WEST PLAINS    SUNNY     69  45  41 S5        30.31F
6HR MIN TEMP:  44; 6HR MAX TEMP:  70;


$$



USA.gov is the U.S. government's official web portal to all federal, state and local government web resources and services.